Orbital Elements at Epoch 2459200.5 (2020-Dec-17.0) TDB
Reference: JPL 18 (heliocentric ecliptic J2000)
Element | Value | Uncertainty (1-sigma) | Units |
e | .3061020815078783 | 6.5673e-08 | |
a | 2.537875335543128 | 8.6535e-09 | au |
q | 1.761026412725871 | 1.6886e-07 | au |
i | 6.817490547161662 | 6.2608e-06 | deg |
node | 169.7596288145096 | 3.4614e-05 | deg |
peri | 175.2909345056517 | 3.5739e-05 | deg |
M | 189.0148674980311 | 1.0102e-05 | deg |
tp | 2459901.890215219770 (2022-Nov-18.39021522) | 4.4205e-05 | TDB |
period | 1476.739373677472 4.04 | 7.553e-06 2.068e-08 | d yr |
n | .243780321982954 | 1.2468e-09 | deg/d |
Q | 3.314724258360385 | 1.1302e-08 | au |
|
| | Orbit Determination Parameters
Additional Information
|